Location: Baurowitz
(49.0241°N, 14.4413°E)
Time: 12:25:46
(UTC+00:00)

Daily predictions for brighter satellites

Satellite Brightness Start Highest point End
(mag) Time Altitude Azimuth Time Altitude Azimuth Time Altitude Azimuth
Meteor 2-10 4.4 19:28:53 10° N 19:34:16 54° ENE 19:39:24 10° SSE
Cosmos 1340 3.3 19:32:31 10° N 19:35:38 33° ENE 19:38:43 10° SE
FALCON 9 R/B 4.1 19:32:06 10° SW 19:36:02 21° S 19:44:08 10° SE
Cosmos 1743 4.3 19:33:07 10° NNW 19:36:24 33° W 19:39:39 10° SSW
Spot 2 Rocket 4.1 19:33:10 10° SE 19:37:52 42° ENE 19:42:37 10° N
Meteor 1-11 Rocket 3.8 19:32:08 10° N 19:37:52 75° ENE 19:43:42 10° SSE
Okean-O 2.9 19:34:10 10° S 19:38:33 70° WSW 19:42:59 10° NNW
USA 245 3.3 19:37:07 10° SE 19:39:15 31° ENE 19:41:40 10° N
Landsat 4 4.5 19:36:08 10° SE 19:39:17 33° ENE 19:42:28 10° N
Cosmos 1500 Rocket 3.7 19:35:26 10° N 19:39:41 56° ENE 19:43:54 10° SSE
Cosmos 1697 Rocket 4.4 19:38:50 10° N 19:43:15 23° NE 19:47:39 10° E
SPOT 5 2.6 19:39:20 10° SSE 19:43:47 88° ENE 19:48:09 10° NNW
Cosmos 2221 4.4 19:40:16 10° SW 19:44:12 33° WNW 19:48:08 10° N
Sich 1 3.3 19:43:16 10° N 19:47:36 57° ENE 19:51:54 10° SSE
Meteor 2-9 Rocket 4.4 19:41:59 10° N 19:47:51 71° ENE 19:53:42 10° SSE
Cosmos 1726 2.7 19:47:53 10° NNW 19:50:54 44° W 19:53:51 10° SSW
Cosmos 1805 Rocket 3.7 19:46:56 10° N 19:51:20 62° ENE 19:55:43 10° SSE
Cosmos 1980 Rocket 4.4 19:49:19 10° N 19:52:57 17° NE 19:56:33 10° ENE
Cosmos 1733 3.0 19:52:44 10° N 19:56:15 63° E 19:59:41 10° SSE
Cosmos 1842 Rocket 4.3 19:52:18 10° SSW 19:56:38 56° WNW 20:00:58 10° N
SL-8 R/B 3.7 19:54:38 10° W 19:59:24 85° S 20:04:11 10° E
Ariane Rocket 3.2 19:56:06 10° SSE 20:01:05 63° ENE 20:06:08 10° N
USA 234 4.2 19:55:31 10° ENE 20:01:52 53° NNW 20:08:11 10° W
Lacrosse 5 rocket 3.3 19:58:43 10° NW 20:02:26 28° N 20:06:05 10° ENE
Meteor 2-4 Rocket 4.4 20:04:37 10° SSE 20:10:03 39° E 20:15:31 10° NNE
CZ-4C R/B 4.3 20:08:55 10° N 20:12:43 50° WNW 20:16:37 10° SW
ERS-1 Rocket 3.1 20:08:32 10° S 20:13:34 78° WSW 20:18:37 10° NNW
SPOT 3 Rocket 3.6 20:10:36 11° SSE 20:15:27 75° ENE 20:20:37 10° NNW
USA 59 Rocket 0.3 20:11:46 10° NW 20:15:41 65° SW 20:20:15 14° SSE
Cosmos 614 Rocket 4.0 20:11:30 10° S 20:16:37 63° ESE 20:21:47 10° NNE
Cosmos 1818 3.8 20:12:43 10° SSW 20:17:59 51° ESE 20:23:17 10° NE
Cosmos 1340 Rocket 2.8 20:14:03 10° S 20:18:02 88° E 20:22:02 10° NNE
Lacrosse 4 Rocket 1.3 20:14:12 10° NNW 20:18:19 84° ENE 20:21:37 16° SE
NOSS 2-1 (E) 3.9 20:14:51 10° NW 20:18:45 62° SW 20:23:15 14° SSE
Meteor 1-27 Rocket 3.7 20:15:05 10° SSW 20:20:36 86° WNW 20:26:14 10° N
Resurs 01 Rocket 4.4 20:20:19 10° WSW 20:22:24 13° W 20:24:30 10° WNW
Okean O Rocket 4.3 20:22:19 10° WSW 20:24:49 15° W 20:27:19 10° NW
Terra 2.1 20:24:14 11° S 20:28:49 66° WSW 20:33:31 10° NNW
Cosmos 1805 3.0 20:26:12 10° N 20:29:56 82° E 20:32:42 17° SSE
Cosmos 1833 Rocket 3.6 20:26:09 14° SSE 20:29:59 29° ESE 20:34:46 10° NE
NOSS 2-1 (D) 4.3 20:28:05 10° NW 20:31:53 46° SW 20:35:55 15° SSE
Cosmos 1656 3.6 20:27:18 10° NNW 20:32:48 88° ENE 20:37:08 17° SSE
Cosmos 1766 4.4 20:29:32 10° N 20:32:51 29° ENE 20:34:59 17° ESE
Cosmos 1743 Rocket 4.2 20:30:17 10° NNW 20:34:37 53° W 20:38:55 10° S
Cosmos 1269 Rocket 4.2 20:32:36 10° S 20:37:35 50° ESE 20:42:40 10° NNE
Cosmos 2082 Rocket 4.1 20:42:09 10° ESE 20:43:38 11° E 20:45:26 10° ENE
Centaur D AC-29 4.5 20:38:49 10° SSW 20:45:39 25° SSE 21:12:55 10° ESE
Cosmos 1470 4.4 20:44:20 10° NNE 20:47:11 21° ENE 20:48:57 15° ESE
DELTA 2 R/B (1) 4.4 20:42:33 10° SW 20:47:15 28° S 20:50:45 15° ESE
Cosmos 1151 Rocket 3.4 20:43:51 10° SSW 20:48:09 65° WNW 20:52:27 10° N
Landsat 5 3.2 20:44:32 10° NNE 20:48:18 67° ESE 20:51:04 18° S
Cosmos 1428 Rocket 4.4 20:42:56 10° S 20:49:03 87° E 20:55:12 10° N
Cosmos 2360 4.3 20:45:11 10° NNW 20:50:56 76° ENE 20:55:00 20° SE
Cosmos 1975 2.8 20:47:13 10° NNW 20:51:10 77° W 20:53:47 20° S
Cosmos 1992 Rocket 4.4 20:49:38 10° NNW 20:54:46 59° WSW 20:58:33 18° S
Meteor 1-18 Rocket 4.3 20:52:54 14° S 20:58:04 75° E 21:03:59 10° NNE
GEOS 3 Rocket 4.1 20:53:27 10° NE 20:58:13 36° ESE 21:01:25 18° S
MOS 1 Rocket 4.2 20:54:08 13° S 20:58:39 53° W 21:03:57 10° NNW
USA 281 3.2 20:54:10 19° SSE 20:59:12 87° WSW 21:05:50 10° NNW
NOSS 3-3 (A) 3.8 20:58:34 10° SW 21:04:03 86° SE 21:10:32 10° NE
ARIANE 5 R/B 3.3 21:02:57 22° SE 21:05:21 42° ENE 21:09:26 10° N
Cosmos 1092 Rocket 4.0 21:01:47 13° S 21:07:29 89° WNW 21:13:52 10° N
Cosmos 1328 Rocket 3.4 21:05:06 19° S 21:08:07 88° E 21:12:27 10° N
CZ-2C R/B 4.1 21:09:26 10° NNE 21:13:43 43° E 21:15:38 27° SSE
BREEZE-M DEB (TANK) 3.8 21:15:39 27° ESE 21:15:39 27° ESE 21:19:19 10° ENE
Cosmos 1140 Rocket 3.8 21:14:22 24° SSE 21:17:13 48° ESE 21:22:14 10° NNE
MetOp-A 4.3 21:14:04 20° S 21:17:14 57° W 21:22:16 10° NNW
Cosmos 1515 Rocket 3.7 21:17:02 28° SSE 21:19:02 54° E 21:23:16 10° NNE
Cosmos 1626 2.3 21:17:58 22° SSW 21:19:48 54° WNW 21:22:59 10° N
NOSS 3-4 (A) 3.9 21:13:30 10° NW 21:20:16 77° NE 21:26:14 19° SE
NOSS 3-4 (C) 3.9 21:13:35 10° NW 21:20:22 77° NE 21:26:21 18° SE
Cosmos 1707 3.3 21:26:10 32° SE 21:27:04 38° E 21:30:28 10° NNE
Cosmos 1697 Rocket 2.7 21:22:16 10° NNW 21:27:56 84° WSW 21:31:08 27° SSE
BREEZE-M DEB (TANK) 2.6 21:20:23 10° WSW 21:29:02 83° SSE 21:31:48 10° ENE
Cosmos 1470 Rocket 3.7 21:25:01 10° NNW 21:29:26 73° W 21:31:41 28° S
PSLV R/B 4.3 21:25:35 10° NNE 21:29:30 45° E 21:30:49 33° SSE
Cosmos 1869 Rocket 4.4 21:26:54 10° N 21:31:02 38° ENE 21:32:56 25° ESE
Cosmos 1633 Rocket 3.9 21:28:05 10° NNW 21:32:17 43° W 21:34:53 20° SSW
Cosmos 1441 Rocket 4.1 21:33:18 10° N 21:36:37 34° ENE 21:37:42 28° ESE
Orbus 7S? 3.1 21:31:49 10° SW 21:37:02 68° SE 21:40:00 10° ENE
NOSS 3-3 (C) 4.2 21:32:22 10° SW 21:37:52 66° NW 21:44:26 10° NE
Cosmos 1980 Rocket 2.5 21:32:28 10° NNW 21:38:10 62° ENE 21:41:37 24° SE
Lacrosse 5 rocket 1.8 21:37:17 10° NW 21:41:27 57° NNE 21:44:16 19° ESE
SL-8 R/B 3.8 21:37:04 10° W 21:41:42 53° SSW 21:43:38 31° SE
Cosmos 44 Rocket 3.7 21:39:05 10° NW 21:43:51 50° WSW 21:45:49 31° S
USA 234 4.4 21:38:05 10° ENE 21:44:14 45° N 21:50:24 10° WNW
Cosmos 1842 3.0 21:44:35 40° S 21:45:50 87° E 21:49:32 10° N
Cosmos 1674 2.4 21:44:53 40° SSW 21:46:02 80° W 21:49:33 10° N
Cosmos 540 Rocket 4.3 21:42:44 10° NNW 21:47:39 42° ENE 21:50:44 21° ESE
Cosmos 1763 Rocket 3.9 21:44:45 10° NNW 21:50:00 58° ENE 21:52:51 26° SE
Cosmos 1933 Rocket 3.6 21:50:01 10° NNW 21:54:24 77° W 21:56:09 36° S
MINOTAUR 4 R/B 3.7 21:52:13 10° N 21:55:10 69° WNW 21:55:42 53° SW
Lacrosse 4 Rocket 3.8 21:54:21 10° W 21:55:59 12° WSW 21:57:32 10° SW
Cosmos 1417 Rocket 4.5 21:49:42 10° N 21:56:04 88° E 21:59:29 29° S
KORONAS-FOTON 3.7 21:55:04 40° SSW 21:56:18 78° W 22:00:02 10° N
Cosmos 407 Rocket 3.5 21:56:18 29° S 21:58:59 72° ESE 22:04:13 10° NNE
GP-B 4.4 21:55:41 10° NNE 21:59:31 28° E 22:00:59 23° ESE
H-2A R/B 2.5 22:01:54 39° S 22:03:25 82° WSW 22:07:44 10° NNW
USA 59 Rocket 2.8 22:04:46 10° WSW 22:05:10 10° WSW 22:05:35 10° WSW
Cosmos 2369 3.8 22:00:01 10° NNW 22:05:47 76° ENE 22:08:52 28° SE
Cosmos 1607 4.1 21:59:38 10° SW 22:06:07 79° NW 22:12:40 10° NE
Cosmos 1190 Rocket 4.3 22:10:54 34° SSE 22:12:54 53° ESE 22:18:04 10° NNE
Cosmos 1833 Rocket 3.4 22:08:10 10° SW 22:13:37 52° NW 22:19:08 10° NNE
ALOS 2 2.7 22:12:16 38° SSE 22:13:54 71° ENE 22:18:17 10° N
ATLAS 2AS CENTAUR R/B 4.5 22:10:17 10° NW 22:16:21 30° NNE 22:22:12 10° E
COSMOS 2406 3.5 22:15:18 32° SSE 22:17:34 50° ESE 22:23:07 10° NE
SL-16 R/B 3.4 22:12:44 10° NNW 22:17:59 36° NE 22:22:42 12° ESE
Cosmos 1758 3.6 22:17:15 10° N 22:21:02 52° ENE 22:22:01 40° SE
PSLV R/B 4.4 22:18:15 10° NNE 22:22:23 36° E 22:23:26 32° SE
Cosmos 1470 3.8 22:19:19 10° NNW 22:22:38 32° W 22:23:37 27° WSW
Meteor 1-23 Rocket 4.3 22:20:52 33° SSE 22:23:18 63° E 22:28:53 10° NNE
Meteor 1-12 Rocket 4.4 22:17:48 10° N 22:23:47 77° ENE 22:26:45 32° SSE
S3M 4.2 22:19:28 10° NNW 22:25:51 69° W 22:29:12 29° S
Cosmos 2082 Rocket 2.2 22:23:57 32° S 22:26:38 69° ESE 22:32:20 10° NNE
Cosmos 2251 Rocket 3.6 22:24:49 26° SSW 22:27:48 76° WNW 22:33:08 10° NNE
CZ-2C R/B 4.4 22:26:20 25° SE 22:29:12 51° ENE 22:48:56 10° N
Cosmos 1707 Rocket 4.1 22:28:05 37° SE 22:29:20 48° E 22:33:38 10° NNE
Cosmos 2360 Rocket 4.1 22:25:15 10° NNW 22:29:58 26° NE 22:34:41 10° E
Meteor 2-10 Rocket 3.7 22:30:26 10° NNW 22:36:18 89° E 22:38:54 34° S
GEOS 3 Rocket 4.3 22:31:20 10° NE 22:36:23 54° NW 22:41:21 10° WSW
Cosmos 1908 4.3 22:35:24 10° NNW 22:38:33 30° W 22:39:14 28° WSW
ARIANE 5 R/B 4.3 22:40:25 19° WSW 22:41:55 22° W 22:45:20 10° NW
Okean 3 4.1 22:41:11 35° SE 22:42:06 40° E 22:45:58 10° NNE
Meteor 1-4 Rocket 4.4 22:42:38 14° E 22:42:38 14° E 22:44:09 10° NE
Cosmos 2315 Rocket 4.1 22:40:09 10° NNW 22:46:26 70° W 22:49:34 31° S
H-2A R/B 2.5 22:44:16 10° NNE 22:48:34 50° E 22:49:42 39° SE
USA 267 4.1 22:43:53 10° ENE 22:49:31 30° SE 22:51:04 27° SSE
Cosmos 1315 Rocket 4.5 22:49:16 20° ESE 22:50:06 21° E 22:53:07 10° NE
Cosmos 2237 4.5 22:47:19 10° NNW 22:53:04 67° ENE 22:56:34 24° SE
Cosmos 1346 Rocket 2.6 22:54:12 10° N 22:58:06 83° ENE 22:58:57 53° SSE
SL-4 R/B 4.0 23:02:20 16° ESE 23:02:20 16° ESE 23:03:56 10° E
Cosmos 1733 Rocket 3.1 22:57:38 10° NNW 23:01:59 69° W 23:03:12 45° SSW
Cosmos 2278 3.7 22:58:18 10° NNW 23:04:03 87° ENE 23:07:01 30° SSE
Cosmos 1400 Rocket 3.2 23:02:59 39° SW 23:04:07 55° WNW 23:08:02 10° N
Cosmos 1300 2.9 23:02:48 10° NNW 23:06:16 48° W 23:06:40 46° WSW
Cosmos 2322 Rocket 2.8 23:07:19 10° NNW 23:12:54 55° ENE 23:17:16 17° SE
Meteor 1-21 4.2 23:11:02 34° SSW 23:13:41 84° WNW 23:19:30 10° N
Cosmos 841 Rocket 3.4 23:08:27 10° NNW 23:13:43 89° WSW 23:16:05 34° SSE
Cosmos 1242 Rocket 4.4 23:19:14 15° E 23:19:16 15° E 23:20:57 10° NE
Okean 1-7 3.1 23:18:10 43° SSE 23:19:25 64° E 23:23:44 10° NNE
Lacrosse 5 rocket 2.3 23:15:56 10° WNW 23:19:04 30° WSW 23:19:04 30° WSW
Cosmos 2228 Rocket 3.8 23:19:15 31° SW 23:20:57 47° WNW 23:25:22 10° N
Cosmos 1980 Rocket 3.5 23:17:11 10° NW 23:21:43 25° WSW 23:23:22 22° SW
USA 234 3.7 23:20:15 10° ESE 23:26:45 66° NNE 23:33:14 10° NW
SL-27 R/B 4.3 23:27:58 15° E 23:27:58 15° E 23:29:24 10° ENE
Cosmos 1356 Rocket 3.8 23:27:09 38° SW 23:28:25 55° WNW 23:32:31 10° N
Cosmos 2333 Rocket 2.9 23:22:51 10° NNW 23:28:28 53° NE 23:33:45 12° SE
Cosmos 540 Rocket 4.5 23:24:32 10° NW 23:29:04 31° W 23:30:28 27° SW
Cosmos 1953 2.1 23:27:15 10° N 23:31:10 86° E 23:32:08 49° SSE
Genesis I 3.0 23:33:03 55° SE 23:33:16 57° SE 23:36:47 10° NE
BREEZE-M DEB (TANK) 4.4 23:34:39 29° SE 23:34:39 29° SE 23:39:15 10° ENE
GP-B 4.3 23:32:46 10° NNW 23:36:42 32° W 23:38:18 25° WSW
Cosmos 1703 Rocket 3.6 23:38:29 39° SSE 23:40:00 70° E 23:44:29 10° NNE
Cosmos 1455 1.8 23:39:10 10° NNW 23:42:39 82° W 23:43:13 60° S
Cosmos 1300 Rocket 4.2 23:40:37 10° N 23:44:49 49° ENE 23:47:00 25° SE
Aureole 3 3.9 23:44:34 29° W 23:45:00 30° WNW 23:47:58 10° N
SJ 16-02 2.2 23:45:36 29° SE 23:46:58 37° ESE 23:50:58 10° NE
RESURS DK-1 2.6 23:44:41 10° NNW 23:48:45 64° ENE 23:51:06 24° SE
